Location: Braunsdorf
(50.7357°N, 11.9136°E)
Time: 10:23:11
(UTC+00:00)

SL-16 R/B - Visible Passes

Search period start: 02 July 2020 00:00
Search period end: 12 July 2020 00:00
Orbit: 840 x 850 km, 71.0° (Epoch: 01 July)

Date Brightness Start Highest point End Pass type
(mag) Time Alt. Az. Time Alt. Az. Time Alt. Az.
02 Jul 3.9 01:40:57 10° W 01:45:34 25° NW 01:50:12 10° NNE visible
02 Jul 4.0 22:01:12 13° ESE 22:03:22 16° E 22:06:35 10° ENE visible
02 Jul 2.2 23:43:04 24° SSW 23:46:36 83° ESE 23:52:20 10° NNE visible
03 Jul 3.9 01:26:46 10° W 01:31:25 25° NW 01:36:06 10° NNE visible
03 Jul 4.0 21:47:10 12° ESE 21:49:17 15° E 21:52:23 10° ENE visible
03 Jul 2.2 23:29:01 24° SSW 23:32:30 81° ESE 23:38:13 10° NNE visible
04 Jul 3.9 01:12:37 10° W 01:17:17 26° NW 01:22:01 10° NNE visible
04 Jul 4.0 21:33:04 12° ESE 21:35:13 15° E 21:38:11 10° ENE visible
04 Jul 2.2 23:14:55 25° SSW 23:18:23 79° ESE 23:24:06 10° NNE visible
05 Jul 3.9 00:58:25 10° W 01:03:10 26° NW 01:07:55 10° NNE visible
05 Jul 4.0 21:18:56 11° ESE 21:21:08 14° E 21:23:57 10° ENE visible
05 Jul 2.2 23:00:47 24° SSW 23:04:17 77° ESE 23:10:00 10° NNE visible
06 Jul 3.9 00:44:15 10° W 00:49:01 27° NW 00:53:49 10° NNE visible
06 Jul 4.0 21:04:44 11° ESE 21:07:04 14° E 21:09:44 10° ENE visible
06 Jul 2.2 22:46:35 23° SSW 22:50:11 75° ESE 22:55:53 10° NNE visible
07 Jul 3.9 00:30:05 10° W 00:34:53 27° NW 00:39:44 10° NNE visible
07 Jul 4.9 02:19:32 10° NNW 02:21:09 11° NNW 02:22:47 10° N visible
07 Jul 4.1 20:50:29 10° ESE 20:52:59 13° E 20:55:29 10° ENE visible
07 Jul 2.2 22:32:19 22° SSW 22:36:04 72° ESE 22:41:46 10° NNE visible
08 Jul 3.9 00:15:55 10° W 00:20:46 28° NW 00:25:38 10° NNE visible
08 Jul 4.9 02:05:17 10° NW 02:07:00 11° NNW 02:08:42 10° N visible
08 Jul 4.1 20:36:36 10° ESE 20:38:54 13° E 20:41:14 10° ENE visible
08 Jul 2.2 22:18:00 20° SSW 22:21:58 70° ESE 22:27:39 10° NNE visible
09 Jul 3.9 00:01:45 10° WSW 00:06:38 28° NW 00:11:32 10° NNE visible
09 Jul 4.9 01:51:03 10° NW 01:52:50 11° NNW 01:54:37 10° N visible
09 Jul 4.1 20:22:43 10° ESE 20:24:50 12° E 20:26:57 10° ENE visible
09 Jul 2.2 22:03:35 18° SSW 22:07:52 68° ESE 22:13:32 10° NNE visible
09 Jul 3.9 23:47:35 10° WSW 23:52:30 29° NW 23:57:27 10° NNE visible
10 Jul 4.9 01:36:48 10° NW 01:38:40 11° NNW 01:40:33 10° N visible
10 Jul 4.1 20:08:52 10° ESE 20:10:45 12° E 20:12:39 10° ENE visible
10 Jul 2.2 21:49:05 15° SSW 21:53:46 66° ESE 21:59:25 10° NE visible
10 Jul 3.9 23:33:25 10° WSW 23:38:21 30° NW 23:43:20 10° NNE visible
11 Jul 4.9 01:22:34 10° NW 01:24:30 12° NNW 01:26:28 10° N visible
11 Jul 2.2 21:34:27 12° SSW 21:39:39 64° ESE 21:45:18 10° NE visible
11 Jul 3.9 23:19:14 10° WSW 23:24:13 30° NW 23:29:15 10° NNE visible
